Location: Unspecified
(35.6961°N, 0.0000°E)
Time: 04:53:55
(UTC+00:00)

Vanguard 3 - Pass Details

Date: 31 May 2019
Orbit: 508 x 3263 km, 33.3° (Epoch: 17 June)

Event Time Altitude Azimuth Distance (km) Brightness Sun altitude
Rises 03:15:51 0° 260° (W) 5,563 - -15.8°
Reaches altitude 10° 03:24:12 10° 229° (SW) 5,298 - -14.5°
Maximum altitude 03:27:36 11° 217° (SW) 5,455 - -14.0°
Exits shadow 03:30:28 10° 207° (SSW) 5,681 10.9 -13.5°
Drops below altitude 10° 03:31:15 10° 204° (SSW) 5,755 10.9 -13.4°
Sets 03:42:36 0° 175° (S) 7,179 11.6 -11.6°
